Weather in Zadne-Pilevo

Russia / Ryazan Oblast     55°04′03″N   40°11′11″E
temp.,
°C
wind,
m/s
gust,
m/s
humid.,
%
clouds,
%
prec.,
mm/h
press.,
hPa
HPBL,
m
28 september, tue
tue2800:00+6ne4791100 0.5 10231004
03:00+5ne4789100 0.6 1024985
06:00+5ne4792100 0.0 1026913
09:00+6ne4888100 0.1 1028659
12:00+7ene4771100 0.1 10291114
15:00+8ne466285 0.1 10301160
18:00+5n237446 0.0 103142
21:00+4nne24795 0.0 103373
29 september, wed
wed2900:00+2nne22841 0.0 103432
03:00+2n23885 0.0 103449
06:00+1n24915 0.0 103585
09:00+6nne256914 0.0 1035318
12:00+10nne23515 0.0 1034967
15:00+11n34485 0.0 10331276
18:00+7n22725 0.0 103324
21:00+5nne227994 0.0 103437
30 september, thu
thu3000:00+5nne228377 0.0 103416
03:00+4n12895 0.0 103511
06:00+3nnw22949 0.0 103515
09:00+7nnw237877 0.0 1035221
12:00+12nnw22605 0.0 1035878
15:00+13nnw236094 0.0 10341208
18:00+11nnw2271100 0.0 103437
21:00+10n227788 0.0 103428
1 october, fri
fri100:00+8nw118899 0.0 103513
03:00+6nw229311 0.0 103524
06:00+6nw23955 0.0 103546
09:00+10nw23765 0.0 1035273
12:00+14wnw23595 0.0 1035853
15:00+15wnw225613 0.0 10341097
18:00+10w22775 0.0 103426
21:00+8wnw22835 0.0 103419
2 october, sat
sat200:00+7w11855 0.0 103411
03:00+6w11875 0.0 103511
06:00+6wsw11885 0.0 103411
09:00+10wsw12695 0.0 1034227
12:00+14wsw23535 0.0 1034818
15:00+15sw23515 0.0 10331071
18:00+10ssw22725 0.0 103310
21:00+9s228031 0.0 103419